軌道要素
Epoch 2013 May 28.0 TT = JDT 2456440.5
T 2013 May 19.66459 TT MPC
q 2.6469508 (2000.0) P Q
z +0.0055088 Peri. 136.57982 -0.67326442 +0.58389937
+/-0.0000066 Node 84.97016 -0.73911173 -0.54864577
e 0.9854185 Incl. 27.08936 +0.02070927 -0.59837225
From 252 observations 2013 Apr. 19-Aug. 10, mean residual 0".5.
|